Location: Kunchanapalle
(16.4623°N, 80.6176°E)
Time: 14:26:04
(UTC+00:00)

deb Kosmos-1763 - Pass Details

Date: 13 August 2020
Orbit: 463 x 478 km, 74.0° (Epoch: 24 September)

Event Time Altitude Azimuth Distance (km) Brightness Sun altitude
Rises 13:52:25 0° 184° (S) 2,487 7.5 -12.1°
Reaches altitude 10° 13:54:32 10° 179° (S) 1,615 6.5 -12.6°
Maximum altitude 13:58:00 52° 102° (ESE) 586 4.1 -13.3°
Drops below altitude 10° 14:01:30 10° 25° (NNE) 1,628 6.7 -14.1°
Sets 14:03:39 0° 21° (NNE) 2,510 7.7 -14.6°
